#timestamp,LO_Frequency,Hit,StdDev 
1607176815.3,286047007.2,N
1607176835.1,286047011.1,N
1607176855.9,286047013.8,N
1607176875.7,286047015.3,N
1607176895.5,286047013.7,N
1607176915.4,286047010.7,N
1607176935.2,286047007.8,N
1607176955.0,286047009.7,N
1607176955.9,286047009.7,N
1607176975.8,286047008.8,N
1607176995.6,286047010.7,N
1607177015.5,286047010.2,N
1607177035.3,286047013.4,N
1607177055.1,286047006.1,N
1607177075.9,286047005.2,N
1607177095.7,286047008.3,N
1607177115.6,286047010.1,N
1607177135.4,286047007.9,N
1607177155.2,286047013.4,N
1607177175.1,286047016.7,Y
1607177176.0,286047016.7,P
1607177195.8,286047006.4,N
1607177215.7,286047008.6,N
1607177235.5,286047011.0,N
1607177255.3,286047010.8,N
1607177275.2,286047013.2,Y
1607177295.0,286047007.0,P
1607177295.9,286047007.0,P
1607177315.8,286047004.5,P
1607177335.6,286047000.5,N
1607177355.4,286046992.6,N
1607177375.3,286046988.5,N
1607177395.1,286046989.8,N
1607177415.8,286046985.9,N
1607177435.7,286046984.5,N
1607177455.5,286046985.0,N
1607177475.4,286046991.8,N
1607177495.2,286046999.6,N
1607177515.0,286046991.3,N
1607177515.9,286046991.3,N
1607177535.8,286046998.3,N
1607177555.6,286047008.5,N
1607177575.4,286047006.1,N
1607177595.3,286047008.9,N
1607177615.1,286047005.9,N
1607177635.9,286047010.0,N
1607177655.7,286047009.1,N
1607177675.5,286047008.7,N
1607177695.4,286047006.3,N
1607177715.2,286046999.7,N
1607177735.0,286046998.5,N
1607177735.9,286046998.5,N
1607177755.8,286047005.8,N
1607177775.6,286047005.7,N
1607177795.5,286047010.3,N
1607177815.3,286046999.8,N
1607177835.1,286047000.8,N
1607177855.9,286047002.1,N
1607177875.7,286046997.5,N
1607177895.5,286046994.5,N
1607177915.4,286046996.6,N
1607177935.2,286046995.1,N
1607177955.1,286047000.2,N
1607177956.0,286047000.2,N
1607177975.8,286046993.8,N
1607177995.6,286046986.9,N
1607178015.5,286046985.9,N
1607178035.3,286046986.5,N
1607178055.1,286046993.8,N
1607178075.9,286046991.4,N
1607178095.7,286046991.4,N
1607178115.6,286046995.9,N
1607178135.4,286046993.0,N
1607178155.2,286046996.2,N
1607178175.1,286046993.5,N
1607178176.0,286046993.5,N
1607178195.8,286046999.2,N
1607178215.6,286046996.3,N
1607178235.5,286046994.7,N
1607178255.3,286046994.2,N
1607178275.2,286046993.0,N
1607178295.9,286046994.2,N
1607178315.7,286046990.6,N
1607178335.6,286046994.1,N
1607178355.4,286046990.7,N
1607178375.2,286046995.8,N
1607178395.1,286046999.4,N
1607178396.0,286046999.4,N
1607178415.8,286046992.2,N
1607178435.7,286046991.0,N
1607178455.5,286046992.0,N
1607178475.3,286046990.2,N
1607178495.2,286046995.5,N
1607178515.0,286046994.8,N
1607178515.9,286046994.8,N
1607178535.8,286046989.3,Y
1607178555.6,286046997.8,P
1607178575.4,286046991.8,P
1607178595.3,286046989.8,P
1607178615.1,286046987.4,Y
1607178635.8,286046999.6,P
1607178655.7,286047002.1,N
1607178675.5,286047000.5,N
1607178695.4,286047001.5,N
1607178715.2,286046998.3,N
1607178735.0,286047000.5,N
1607178735.9,286047000.5,N
1607178755.8,286046997.8,N
1607178775.6,286046996.6,N
1607178795.4,286047000.1,N
1607178815.3,286046997.8,N
1607178835.1,286046995.1,N
1607178855.9,286046997.7,N
1607178875.7,286046999.1,N
1607178895.5,286046998.3,N
1607178915.4,286046995.4,N
1607178935.2,286046998.3,N
1607178955.0,286047001.4,N
1607178955.9,286047001.4,N
1607178975.8,286047000.9,N
1607178995.6,286046998.0,N
1607179015.5,286046992.0,Y
1607179035.3,286046995.1,P
1607179055.1,286046991.9,P
1607179075.9,286046990.9,P
1607179095.7,286046990.2,Y
1607179115.6,286046999.6,P
1607179135.4,286047004.8,N
1607179155.2,286047011.9,N
1607179175.1,286047008.2,N
1607179176.0,286047008.2,N
1607179195.8,286047014.0,N
1607179215.7,286047008.0,N
1607179235.5,286047005.9,N
1607179255.3,286047001.2,N
1607179275.2,286047007.4,N
1607179295.9,286047006.9,N
1607179315.7,286047006.4,N
1607179335.6,286047012.0,N
1607179355.4,286047010.9,N
1607179375.2,286047008.6,N
1607179395.1,286047010.3,N
1607179396.0,286047010.3,N
1607179415.8,286047008.5,N
1607179435.7,286047008.4,N
1607179455.5,286047008.0,N
1607179475.3,286047010.7,N
1607179495.2,286047007.7,N
1607179515.0,286047006.3,N
1607179515.9,286047006.3,N
1607179535.8,286047010.0,N
1607179555.6,286047004.5,N
1607179575.4,286047005.0,N
1607179595.3,286047007.7,N
1607179615.1,286047015.2,Y
1607179635.8,286047006.4,P
1607179655.7,286047004.4,P
1607179675.5,286047008.0,P
1607179695.4,286047010.1,Y
1607179715.2,286046998.6,P
1607179735.0,286046999.3,N
1607179735.9,286046999.3,N
1607179755.8,286046997.5,N
1607179775.6,286047002.3,N
1607179795.5,286047004.4,N
1607179815.3,286046999.8,N
1607179835.1,286046995.6,N
1607179855.9,286046994.0,N
1607179875.7,286046992.2,N
1607179895.5,286046995.0,N
1607179915.4,286046999.1,N
1607179935.2,286046995.1,N
1607179955.1,286046994.0,N
1607179956.0,286046994.0,N
1607179975.8,286046992.5,N
1607179995.6,286046994.6,N
1607180015.5,286046990.6,N
1607180035.3,286046989.6,N
1607180055.2,286046992.1,N
1607180075.9,286046995.0,N
1607180095.7,286046998.4,N
1607180115.6,286046997.5,N
1607180135.4,286046994.6,N
1607180155.2,286046992.5,N
1607180175.1,286046988.7,N
1607180176.0,286046988.7,N
1607180195.8,286046996.7,N
1607180215.7,286046996.3,N
1607180235.5,286046996.9,N
1607180255.3,286046998.1,N
1607180275.2,286046998.5,N
1607180295.0,286046996.6,N
1607180295.9,286046996.6,N
1607180315.8,286046992.6,N
1607180335.6,286046992.8,N
1607180355.4,286046987.4,Y
1607180375.3,286046996.1,P
1607180395.1,286047002.6,P
